TimeCST,TemperatureF,Dew PointF,Humidity,Sea Level PressureIn,VisibilityMPH,Wind Direction,Wind SpeedMPH,Gust SpeedMPH,PrecipitationIn,Events,Conditions,WindDirDegrees,DateUTC
12:15 AM,26.6,19.4,74,30.02,10.0,NW,5.8,-,N/A,,Clear,310,2011-11-30 06:15:00
12:35 AM,26.6,19.4,74,30.01,10.0,NW,3.5,-,N/A,,Clear,320,2011-11-30 06:35:00
12:55 AM,26.6,19.4,74,30.01,10.0,WNW,3.5,-,N/A,,Clear,300,2011-11-30 06:55:00
1:15 AM,26.6,19.4,74,30.01,10.0,WNW,5.8,-,N/A,,Clear,300,2011-11-30 07:15:00
1:35 AM,26.6,19.4,74,30.02,10.0,NW,4.6,-,N/A,,Clear,310,2011-11-30 07:35:00
1:55 AM,26.6,19.4,74,30.02,10.0,NW,5.8,-,N/A,,Clear,310,2011-11-30 07:55:00
2:15 AM,26.6,19.4,74,30.02,10.0,NW,4.6,-,N/A,,Clear,310,2011-11-30 08:15:00
2:55 AM,26.6,17.6,69,30.01,10.0,NW,4.6,-,N/A,,Clear,310,2011-11-30 08:55:00
3:15 AM,26.6,17.6,69,30.01,10.0,WNW,5.8,-,N/A,,Clear,300,2011-11-30 09:15:00
3:35 AM,26.6,19.4,74,30.01,10.0,WNW,4.6,-,N/A,,Clear,290,2011-11-30 09:35:00
3:55 AM,24.8,19.4,80,30.00,10.0,West,4.6,-,N/A,,Clear,280,2011-11-30 09:55:00
4:15 AM,24.8,19.4,80,30.00,10.0,West,4.6,-,N/A,,Clear,280,2011-11-30 10:15:00
4:35 AM,24.8,19.4,80,30.00,10.0,WNW,4.6,-,N/A,,Clear,290,2011-11-30 10:35:00
4:55 AM,23.0,17.6,80,30.00,10.0,West,4.6,-,N/A,,Clear,280,2011-11-30 10:55:00
5:15 AM,23.0,17.6,80,30.00,10.0,WNW,4.6,-,N/A,,Clear,290,2011-11-30 11:15:00
5:35 AM,23.0,17.6,80,30.00,10.0,WNW,3.5,-,N/A,,Clear,300,2011-11-30 11:35:00
5:55 AM,23.0,17.6,80,30.01,10.0,West,3.5,-,N/A,,Clear,280,2011-11-30 11:55:00
6:15 AM,21.2,17.6,86,30.01,10.0,West,3.5,-,N/A,,Clear,270,2011-11-30 12:15:00
6:35 AM,21.2,17.6,86,30.01,10.0,West,3.5,-,N/A,,Clear,260,2011-11-30 12:35:00
6:55 AM,21.2,17.6,86,30.01,10.0,Calm,Calm,-,N/A,,Clear,0,2011-11-30 12:55:00
7:15 AM,21.2,17.6,86,30.01,10.0,Calm,Calm,-,N/A,,Clear,0,2011-11-30 13:15:00
7:35 AM,21.2,17.6,86,30.01,10.0,SW,3.5,-,N/A,,Clear,230,2011-11-30 13:35:00
7:55 AM,23.0,19.4,86,30.01,10.0,WSW,4.6,-,N/A,,Clear,240,2011-11-30 13:55:00
8:15 AM,24.8,19.4,80,30.01,10.0,WSW,3.5,-,N/A,,Clear,240,2011-11-30 14:15:00
8:35 AM,28.4,19.4,69,30.01,10.0,West,4.6,-,N/A,,Clear,270,2011-11-30 14:35:00
8:55 AM,30.2,19.4,64,30.01,10.0,West,4.6,-,N/A,,Clear,270,2011-11-30 14:55:00
10:15 AM,35.6,19.4,52,30.02,10.0,SW,4.6,-,N/A,,Clear,230,2011-11-30 16:15:00
10:35 AM,35.6,17.6,48,30.01,10.0,WSW,5.8,-,N/A,,Clear,250,2011-11-30 16:35:00
10:55 AM,37.4,15.8,41,30.00,10.0,SW,5.8,-,N/A,,Clear,220,2011-11-30 16:55:00
11:35 AM,41.0,14.0,33,29.98,10.0,WSW,6.9,-,N/A,,Clear,240,2011-11-30 17:35:00
11:55 AM,42.8,12.2,29,29.98,10.0,SW,9.2,-,N/A,,Clear,230,2011-11-30 17:55:00
12:15 PM,42.8,12.2,29,29.97,10.0,SW,4.6,-,N/A,,Clear,220,2011-11-30 18:15:00
12:35 PM,44.6,12.2,27,29.97,10.0,SW,5.8,-,N/A,,Clear,230,2011-11-30 18:35:00
12:55 PM,44.6,12.2,27,29.97,10.0,SW,8.1,-,N/A,,Clear,230,2011-11-30 18:55:00
1:15 PM,44.6,12.2,27,29.96,10.0,SW,10.4,-,N/A,,Clear,220,2011-11-30 19:15:00
1:35 PM,44.6,10.4,25,29.96,10.0,WSW,10.4,-,N/A,,Clear,240,2011-11-30 19:35:00
1:55 PM,42.8,10.4,27,29.96,10.0,WSW,8.1,-,N/A,,Clear,240,2011-11-30 19:55:00
2:15 PM,44.6,12.2,27,29.96,10.0,SW,4.6,-,N/A,,Clear,230,2011-11-30 20:15:00
2:35 PM,44.6,12.2,27,29.96,10.0,SSW,5.8,-,N/A,,Clear,200,2011-11-30 20:35:00
2:55 PM,44.6,12.2,27,29.96,10.0,SW,4.6,-,N/A,,Clear,220,2011-11-30 20:55:00
3:15 PM,42.8,12.2,29,29.97,10.0,South,3.5,-,N/A,,Clear,190,2011-11-30 21:15:00
3:35 PM,42.8,12.2,29,29.97,10.0,South,5.8,-,N/A,,Clear,170,2011-11-30 21:35:00
3:55 PM,41.0,14.0,33,29.97,10.0,South,5.8,-,N/A,,Clear,180,2011-11-30 21:55:00
4:15 PM,41.0,15.8,36,29.97,10.0,South,3.5,-,N/A,,Clear,170,2011-11-30 22:15:00
4:35 PM,39.2,17.6,42,29.97,10.0,South,4.6,-,N/A,,Scattered Clouds,180,2011-11-30 22:35:00
4:55 PM,39.2,17.6,42,29.97,10.0,South,4.6,-,N/A,,Mostly Cloudy,170,2011-11-30 22:55:00
5:15 PM,39.2,17.6,42,29.98,10.0,South,4.6,-,N/A,,Overcast,180,2011-11-30 23:15:00
5:35 PM,39.2,15.8,39,29.99,10.0,South,5.8,-,N/A,,Overcast,190,2011-11-30 23:35:00
5:55 PM,39.2,15.8,39,29.99,10.0,SSW,4.6,-,N/A,,Overcast,200,2011-11-30 23:55:00
6:15 PM,39.2,14.0,36,29.99,10.0,SSW,4.6,-,N/A,,Overcast,200,2011-12-01 00:15:00
6:35 PM,37.4,14.0,38,29.99,10.0,South,5.8,-,N/A,,Mostly Cloudy,170,2011-12-01 00:35:00
6:55 PM,37.4,14.0,38,29.99,10.0,South,4.6,-,N/A,,Overcast,180,2011-12-01 00:55:00
7:15 PM,37.4,15.8,41,30.00,10.0,SSW,3.5,-,N/A,,Overcast,200,2011-12-01 01:15:00
7:35 PM,37.4,14.0,38,30.00,10.0,SSW,4.6,-,N/A,,Overcast,200,2011-12-01 01:35:00
7:55 PM,37.4,14.0,38,30.01,10.0,SSW,4.6,-,N/A,,Overcast,200,2011-12-01 01:55:00
8:15 PM,39.2,12.2,33,30.01,10.0,SSW,3.5,-,N/A,,Overcast,200,2011-12-01 02:15:00
8:35 PM,37.4,15.8,41,30.02,10.0,Calm,Calm,-,N/A,,Scattered Clouds,0,2011-12-01 02:35:00
9:15 PM,37.4,14.0,38,30.03,10.0,Calm,Calm,-,N/A,,Mostly Cloudy,0,2011-12-01 03:15:00
9:35 PM,37.4,14.0,38,30.03,10.0,Calm,Calm,-,N/A,,Overcast,0,2011-12-01 03:35:00
9:55 PM,37.4,17.6,45,30.05,10.0,SSW,3.5,-,N/A,,Overcast,200,2011-12-01 03:55:00
10:15 PM,37.4,17.6,45,30.05,10.0,South,3.5,-,N/A,,Overcast,190,2011-12-01 04:15:00
10:35 PM,37.4,17.6,45,30.06,10.0,South,3.5,-,N/A,,Overcast,190,2011-12-01 04:35:00
10:55 PM,37.4,17.6,45,30.06,10.0,SSW,3.5,-,N/A,,Overcast,200,2011-12-01 04:55:00
11:15 PM,37.4,17.6,45,30.07,10.0,South,3.5,-,N/A,,Overcast,190,2011-12-01 05:15:00
11:35 PM,37.4,15.8,41,30.08,10.0,Calm,Calm,-,N/A,,Overcast,0,2011-12-01 05:35:00
11:55 PM,35.6,17.6,48,30.08,10.0,Calm,Calm,-,N/A,,Mostly Cloudy,0,2011-12-01 05:55:00